Location: Lawrence Hall of Science
(37.8785°N, 122.2415°W)
Time: 04:05:31
(UTC-07:00)

Daily predictions for brighter satellites

Satellite Brightness Start Highest point End
(mag) Time Altitude Azimuth Time Altitude Azimuth Time Altitude Azimuth
ADEOS II 4.3 03:58:11 10° NE 04:00:18 21° NE 04:00:18 21° NE
USA 267 4.0 04:09:07 10° SE 04:13:28 45° ESE 04:13:28 45° ESE
Cosmos 2369 Rocket 3.9 04:25:18 24° NNE 04:25:18 24° NNE 04:27:29 10° NNE
CZ-3 R/B 4.1 04:23:58 47° WSW 04:33:09 60° SSW 04:44:16 10° ESE
CZ-4C R/B 3.5 04:36:58 22° NNW 04:41:41 54° NE 04:49:28 10° SE
Nadezhda 1 Rocket 4.2 04:45:40 37° SSE 04:48:19 69° E 04:54:39 10° NNE
Cosmos 990 Rocket 4.4 04:51:00 58° ENE 04:51:00 58° ENE 04:55:29 10° NNE
Cosmos 2074 Rocket 4.0 04:44:35 10° N 04:53:56 34° S 04:57:13 10° S
Cosmos 2298 Rocket 4.3 04:53:24 63° NE 04:53:24 63° NE 04:57:58 10° NNE
Cosmos 44 Rocket 4.0 04:56:14 49° NE 04:56:35 50° ENE 05:01:21 10° SE
Okean O Rocket 2.3 04:56:29 10° NNE 05:00:41 53° E 05:00:41 53° E
GPS 2-04 Rocket1 4.5 05:05:03 27° ESE 05:05:03 27° ESE 05:06:53 10° ESE
Cosmos 1656 Rocket 3.8 05:10:28 37° S 05:12:46 74° ESE 05:18:26 10° NNE
Cosmos 1758 Rocket 4.0 05:13:26 30° SSE 05:15:29 63° E 05:19:57 10° NNE
Cosmos 2154 Rocket 4.1 05:13:53 10° N 05:20:15 80° E 05:26:33 10° S
CZ-4B R/B 3.2 05:20:35 10° NNE 05:26:04 80° ESE 05:31:37 10° S
Cosmos 1943 Rocket 3.0 05:29:08 33° NW 05:29:08 33° NW 05:33:13 10° N
RUBIN 8/PSLV 4.4 05:33:00 10° N 05:37:16 67° WNW 05:38:19 48° SW
BREEZE-M DEB (TANK) 2.8 05:38:02 50° WNW 05:38:42 58° NNW 05:47:21 10° NE
Meteor PRIRODA 3.5 05:36:35 10° NNE 05:40:21 89° WNW 05:42:35 23° SSW
ADEOS II 3.2 05:37:58 10° N 05:41:14 26° NW 05:41:14 26° NW
NOSS 3-1 (C) 3.3 05:40:43 19° SSW 05:44:54 89° ESE 05:51:14 10° NNE
USA 229 DEB 3.9 05:43:10 33° WSW 05:45:48 48° NW 05:52:28 10° NNE
USA 229 3.9 05:43:12 33° WSW 05:45:53 48° NW 05:52:34 10° NNE
OAO 2 Rocket 3.4 05:46:10 39° WSW 05:47:51 62° S 05:52:44 10° ESE
Cosmos 1470 3.6 05:50:07 33° SW 05:50:07 33° SW 05:52:33 10° SSW
NOSS 3-1 (A) 3.6 05:44:20 10° SSW 05:49:57 69° ESE 05:56:12 10° NE
Lacrosse 5 4.1 05:52:53 10° NNW 05:54:01 11° NNW 05:55:11 10° N
Meteor 1-24 Rocket 4.5 05:49:15 10° S 05:55:10 59° E 06:01:01 10° NNE
Cosmos 1340 Rocket 4.3 05:58:40 21° NW 05:58:40 21° NW 06:00:36 10° NNW
USA 267 4.1 05:53:35 10° S 05:58:57 27° SW 06:00:51 23° W
Cosmos 962 Rocket 4.4 05:54:00 10° NNW 06:00:06 69° W 06:06:09 10° S
IRS-1C Rocket 4.1 05:55:17 10° N 06:00:26 55° WNW 06:05:33 10° SSW
Tiangong 2 1.3 06:00:07 40° NW 06:01:03 67° NNE 06:04:14 10° ESE
Meteor 1-31 Rocket 2.7 05:57:34 10° N 06:01:19 55° WNW 06:05:01 10° SSW
DELTA 2 R/B(2) 3.9 06:02:56 49° NNW 06:03:09 51° N 06:06:20 10° E
SJ-6F 4.3 06:02:03 10° N 06:06:06 66° WNW 06:10:07 10° SSW
Cosmos 1953 Rocket 4.1 06:03:59 19° SW 06:06:31 34° WNW 06:10:29 10° NNW
Cosmos 2369 Rocket 4.1 06:07:07 11° NW 06:07:07 11° NW 06:08:40 10° NNW
Cosmos 2341 Rocket 4.0 06:02:49 10° NNW 06:09:05 60° W 06:15:20 10° S
Cosmos 2227 Rocket 4.2 06:04:15 10° N 06:09:05 28° ENE 06:13:53 10° ESE
Cosmos 372 Rocket 4.0 06:04:44 10° SSW 06:09:55 89° SE 06:15:11 10° NNE
Cosmos 2181 Rocket 4.0 06:04:45 10° SSW 06:10:56 63° W 06:17:05 10° N
SJ 16-02 1.3 06:07:29 10° SSW 06:11:53 87° ESE 06:16:18 10° NNE
Cosmos 1707 3.7 06:11:51 25° W 06:12:41 27° WNW 06:16:04 10° NNW
Meteor 2-14 Rocket 4.4 06:08:53 10° N 06:14:58 88° W 06:21:02 10° S
Cosmos 1125 Rocket 3.4 06:10:30 10° SSW 06:15:43 73° WNW 06:21:02 10° NNE
NOAA 6 4.1 06:11:53 10° NNE 06:17:06 84° ESE 06:22:14 10° SSW
Milstar 3 3.9 06:14:34 15° WSW 06:19:30 35° S 06:27:15 10° SE
Cosmos 44 4.3 06:18:23 19° WNW 06:20:14 24° WSW 06:24:07 10° SSW
SKYMED 2 3.8 06:16:41 10° SSE 06:20:59 72° ENE 06:25:19 10° N
ERBS 4.1 06:20:21 10° NNW 06:23:27 30° NE 06:26:32 10° ESE
Meteor 2-5 Rocket 4.1 06:24:35 10° SSW 06:30:10 43° WNW 06:35:44 10° N
CZ-4C R/B 3.6 06:23:32 10° NW 06:30:11 35° WSW 06:37:16 10° S
Shenzhou-11 Module 2.8 06:28:36 18° W 06:30:24 35° SSW 06:33:13 10° SE
CZ-2C R/B 4.3 06:28:06 10° SSW 06:32:29 37° W 06:36:52 10° NNW
Cosmos 1959 Rocket 4.5 06:27:17 10° N 06:33:36 74° W 06:39:47 10° S
EO 1 Del DPAF 3.3 06:30:03 10° S 06:33:48 54° W 06:37:34 10° NNW
Cosmos 2219 3.2 06:28:15 10° NNW 06:33:53 67° WSW 06:39:26 10° S
MTI 4.4 06:32:13 10° SSW 06:35:14 35° W 06:38:16 10° NNW
Okean O Rocket 3.3 06:34:33 10° NW 06:36:42 14° WNW 06:38:08 12° W
USA 116 4.3 06:33:56 10° SSW 06:36:58 30° W 06:40:20 10° NNW
ORS 1 (USA 231) 4.5 06:36:00 15° W 06:38:20 65° N 06:41:14 10° ENE
Cosmos 1356 Rocket 4.5 06:35:22 10° SW 06:38:56 26° WNW 06:42:34 10° NNW
GPS 2-04 Rocket1 3.7 06:39:29 11° W 06:42:37 30° SSW 06:45:50 10° SE
Meteor 2-1 Rocket 4.3 06:36:51 10° N 06:42:48 86° W 06:48:37 10° S
Cosmos 2297 Rocket 3.3 06:41:56 10° N 06:47:22 46° ENE 06:52:46 10° SE
Cosmos 1048 Rocket 4.1 06:42:58 10° NNW 06:48:02 55° WSW 06:53:08 10° S
Okean-O 3.1 06:44:50 10° N 06:49:00 40° WNW 06:53:07 10° SW
